Time,TemperatureF,DewpointF,PressureIn,WindDirection,WindDirectionDegrees,WindSpeedMPH,WindSpeedGustMPH,Humidity,HourlyPrecipIn,Conditions,Clouds,dailyrainin,SoftwareType,DateUTC
2013-08-22 00:12:00,67.9,67.0,30.01,WNW,283,0.0,4.0,95,0.00,,,0.00,weatherlink.com 1.10,2013-08-22 04:12:00,
2013-08-22 00:28:00,68.0,67.0,30.02,ESE,108,2.0,3.0,95,0.00,,,0.00,weatherlink.com 1.10,2013-08-22 04:28:00,
2013-08-22 00:43:00,67.9,67.0,30.01,SSW,206,0.0,3.0,95,0.00,,,0.00,weatherlink.com 1.10,2013-08-22 04:43:00,
2013-08-22 00:58:00,67.8,66.0,30.02,WNW,291,0.0,2.0,95,0.00,,,0.00,weatherlink.com 1.10,2013-08-22 04:58:00,
2013-08-22 01:13:00,67.8,66.0,30.03,NW,321,3.0,5.0,94,0.00,,,0.00,weatherlink.com 1.10,2013-08-22 05:13:00,
2013-08-22 01:28:00,68.0,66.0,30.03,WNW,287,1.0,3.0,94,0.00,,,0.00,weatherlink.com 1.10,2013-08-22 05:28:00,
2013-08-22 01:43:00,67.9,66.0,30.04,West,278,0.0,1.0,94,0.00,,,0.00,weatherlink.com 1.10,2013-08-22 05:43:00,
2013-08-22 01:58:00,68.1,66.0,30.04,SW,236,0.0,2.0,94,0.00,,,0.00,weatherlink.com 1.10,2013-08-22 05:58:00,
2013-08-22 02:13:00,67.9,66.0,30.03,WNW,290,0.0,1.0,94,0.00,,,0.00,weatherlink.com 1.10,2013-08-22 06:13:00,
2013-08-22 02:28:00,67.9,66.0,30.02,SE,128,0.0,3.0,94,0.00,,,0.00,weatherlink.com 1.10,2013-08-22 06:28:00,
2013-08-22 02:43:00,67.9,66.0,30.02,West,274,0.0,1.0,94,0.00,,,0.00,weatherlink.com 1.10,2013-08-22 06:43:00,
2013-08-22 02:58:00,67.9,66.0,30.02,West,280,0.0,3.0,94,0.00,,,0.00,weatherlink.com 1.10,2013-08-22 06:58:00,
2013-08-22 03:13:00,68.0,66.0,30.01,NW,316,0.0,3.0,94,0.00,,,0.00,weatherlink.com 1.10,2013-08-22 07:13:00,
2013-08-22 03:28:00,68.0,66.0,30.01,NW,321,0.0,4.0,94,0.00,,,0.00,weatherlink.com 1.10,2013-08-22 07:28:00,
2013-08-22 03:43:00,68.0,66.0,30.00,West,270,0.0,3.0,94,0.00,,,0.00,weatherlink.com 1.10,2013-08-22 07:43:00,
2013-08-22 03:58:00,68.3,67.0,30.00,WNW,288,0.0,1.0,94,0.00,,,0.00,weatherlink.com 1.10,2013-08-22 07:58:00,
2013-08-22 04:13:00,68.1,66.0,30.00,WNW,288,0.0,0.0,94,0.00,,,0.00,weatherlink.com 1.10,2013-08-22 08:13:00,
2013-08-22 04:28:00,67.8,66.0,29.99,WSW,245,0.0,2.0,94,0.00,,,0.00,weatherlink.com 1.10,2013-08-22 08:28:00,
2013-08-22 04:43:00,67.6,66.0,29.99,WSW,245,0.0,0.0,95,0.00,,,0.00,weatherlink.com 1.10,2013-08-22 08:43:00,
2013-08-22 04:58:00,67.4,66.0,29.99,WSW,245,0.0,0.0,95,0.00,,,0.00,weatherlink.com 1.10,2013-08-22 08:58:00,
2013-08-22 05:13:00,67.2,66.0,29.98,WSW,245,0.0,0.0,95,0.00,,,0.00,weatherlink.com 1.10,2013-08-22 09:13:00,
2013-08-22 05:29:00,66.9,66.0,29.98,WSW,245,0.0,0.0,96,0.00,,,0.00,weatherlink.com 1.10,2013-08-22 09:29:00,
2013-08-22 05:43:00,66.8,66.0,29.99,WSW,250,0.0,2.0,96,0.00,,,0.00,weatherlink.com 1.10,2013-08-22 09:43:00,
2013-08-22 05:58:00,66.8,66.0,30.00,WSW,250,0.0,1.0,96,0.00,,,0.00,weatherlink.com 1.10,2013-08-22 09:58:00,
2013-08-22 06:13:00,66.8,66.0,30.01,WSW,243,0.0,2.0,97,0.00,,,0.00,weatherlink.com 1.10,2013-08-22 10:13:00,
2013-08-22 06:28:00,66.8,66.0,30.01,WSW,246,1.0,2.0,97,0.00,,,0.00,weatherlink.com 1.10,2013-08-22 10:28:00,
2013-08-22 06:43:00,66.8,66.0,30.01,WSW,246,0.0,1.0,97,0.00,,,0.00,weatherlink.com 1.10,2013-08-22 10:43:00,
2013-08-22 08:28:00,69.1,68.0,30.02,WNW,298,0.0,3.0,95,0.00,,,0.00,weatherlink.com 1.10,2013-08-22 12:28:00,
2013-08-22 08:43:00,70.1,68.0,30.01,WNW,287,4.0,7.0,93,0.00,,,0.00,weatherlink.com 1.10,2013-08-22 12:43:00,
2013-08-22 08:58:00,70.9,68.0,30.01,WNW,287,0.0,8.0,90,0.00,,,0.00,weatherlink.com 1.10,2013-08-22 12:58:00,
2013-08-22 09:13:00,72.4,69.0,30.01,East,92,0.0,4.0,89,0.00,,,0.00,weatherlink.com 1.10,2013-08-22 13:13:00,
2013-08-22 09:29:00,75.8,70.0,30.01,SSW,200,2.0,3.0,82,0.00,,,0.00,weatherlink.com 1.10,2013-08-22 13:29:00,
2013-08-22 09:44:00,77.6,71.0,30.01,West,275,1.0,3.0,79,0.00,,,0.00,weatherlink.com 1.10,2013-08-22 13:44:00,
2013-08-22 09:59:00,79.4,70.0,30.01,NW,318,2.0,6.0,72,0.00,,,0.00,weatherlink.com 1.10,2013-08-22 13:59:00,
2013-08-22 10:14:00,79.8,66.0,30.02,NW,312,5.0,10.0,63,0.00,,,0.00,weatherlink.com 1.10,2013-08-22 14:14:00,
2013-08-22 10:29:00,78.9,66.0,30.01,NW,323,2.0,9.0,65,0.00,,,0.00,weatherlink.com 1.10,2013-08-22 14:29:00,
2013-08-22 10:44:00,79.1,65.0,30.01,NNW,327,3.0,8.0,63,0.00,,,0.00,weatherlink.com 1.10,2013-08-22 14:44:00,
2013-08-22 10:59:00,81.0,65.0,30.01,WNW,300,10.0,14.0,59,0.00,,,0.00,weatherlink.com 1.10,2013-08-22 14:59:00,
2013-08-22 11:14:00,82.0,67.0,30.02,NNW,348,4.0,12.0,60,0.00,,,0.00,weatherlink.com 1.10,2013-08-22 15:14:00,
2013-08-22 11:29:00,81.7,66.0,30.01,WSW,249,2.0,12.0,60,0.00,,,0.00,weatherlink.com 1.10,2013-08-22 15:29:00,
2013-08-22 11:44:00,80.8,66.0,30.01,NW,312,5.0,11.0,60,0.00,,,0.00,weatherlink.com 1.10,2013-08-22 15:44:00,
2013-08-22 11:59:00,80.7,66.0,30.01,NNW,333,6.0,12.0,61,0.00,,,0.00,weatherlink.com 1.10,2013-08-22 15:59:00,
2013-08-22 12:14:00,80.6,66.0,30.01,West,260,3.0,11.0,61,0.00,,,0.00,weatherlink.com 1.10,2013-08-22 16:14:00,
2013-08-22 12:29:00,80.5,66.0,30.00,WNW,286,1.0,7.0,62,0.00,,,0.00,weatherlink.com 1.10,2013-08-22 16:29:00,
2013-08-22 12:44:00,80.6,67.0,29.99,NW,307,3.0,6.0,63,0.00,,,0.00,weatherlink.com 1.10,2013-08-22 16:44:00,
2013-08-22 12:59:00,80.5,66.0,29.98,WNW,298,1.0,8.0,62,0.00,,,0.00,weatherlink.com 1.10,2013-08-22 16:59:00,
2013-08-22 13:14:00,80.9,68.0,29.98,NW,317,2.0,6.0,66,0.00,,,0.00,weatherlink.com 1.10,2013-08-22 17:14:00,
2013-08-22 13:29:00,81.1,67.0,29.98,NNW,345,0.0,8.0,63,0.00,,,0.00,weatherlink.com 1.10,2013-08-22 17:29:00,
2013-08-22 13:44:00,81.6,67.0,29.97,SW,233,5.0,7.0,61,0.00,,,0.00,weatherlink.com 1.10,2013-08-22 17:44:00,
2013-08-22 13:59:00,82.4,67.0,29.97,NW,316,3.0,9.0,60,0.00,,,0.00,weatherlink.com 1.10,2013-08-22 17:59:00,
2013-08-22 14:14:00,83.8,68.0,29.96,West,275,5.0,9.0,59,0.00,,,0.00,weatherlink.com 1.10,2013-08-22 18:14:00,
2013-08-22 14:29:00,83.3,68.0,29.96,NNW,327,4.0,10.0,60,0.00,,,0.00,weatherlink.com 1.10,2013-08-22 18:29:00,
2013-08-22 14:44:00,83.1,68.0,29.95,NW,324,0.0,8.0,60,0.00,,,0.00,weatherlink.com 1.10,2013-08-22 18:44:00,
2013-08-22 14:59:00,83.4,67.0,29.95,NW,314,6.0,13.0,59,0.00,,,0.00,weatherlink.com 1.10,2013-08-22 18:59:00,
2013-08-22 15:14:00,84.9,67.0,29.94,NNW,333,3.0,8.0,56,0.00,,,0.00,weatherlink.com 1.10,2013-08-22 19:14:00,
2013-08-22 15:29:00,85.8,67.0,29.93,NW,306,4.0,11.0,54,0.00,,,0.00,weatherlink.com 1.10,2013-08-22 19:29:00,
2013-08-22 15:44:00,84.9,68.0,29.92,NW,304,0.0,11.0,57,0.00,,,0.00,weatherlink.com 1.10,2013-08-22 19:44:00,
2013-08-22 15:59:00,85.3,69.0,29.91,NW,325,4.0,10.0,58,0.00,,,0.00,weatherlink.com 1.10,2013-08-22 19:59:00,
2013-08-22 16:14:00,86.9,67.0,29.91,NW,307,6.0,8.0,51,0.00,,,0.00,weatherlink.com 1.10,2013-08-22 20:14:00,
2013-08-22 16:29:00,87.0,67.0,29.90,NNW,331,3.0,10.0,51,0.00,,,0.00,weatherlink.com 1.10,2013-08-22 20:29:00,
2013-08-22 16:45:00,85.8,67.0,29.90,WNW,303,4.0,8.0,53,0.00,,,0.00,weatherlink.com 1.10,2013-08-22 20:45:00,
2013-08-22 17:00:00,86.1,68.0,29.90,West,260,3.0,6.0,55,0.00,,,0.00,weatherlink.com 1.10,2013-08-22 21:00:00,
2013-08-22 17:15:00,86.8,67.0,29.90,NW,312,7.0,13.0,52,0.00,,,0.00,weatherlink.com 1.10,2013-08-22 21:15:00,
2013-08-22 17:30:00,86.6,67.0,29.90,WNW,291,4.0,10.0,53,0.00,,,0.00,weatherlink.com 1.10,2013-08-22 21:30:00,
2013-08-22 17:45:00,86.4,69.0,29.89,WSW,248,4.0,8.0,56,0.00,,,0.00,weatherlink.com 1.10,2013-08-22 21:45:00,
2013-08-22 18:00:00,85.8,68.0,29.89,SW,235,0.0,10.0,55,0.00,,,0.00,weatherlink.com 1.10,2013-08-22 22:00:00,
2013-08-22 18:15:00,85.1,67.0,29.89,NW,326,0.0,8.0,55,0.00,,,0.00,weatherlink.com 1.10,2013-08-22 22:15:00,
2013-08-22 18:30:00,84.7,67.0,29.89,WSW,258,1.0,8.0,55,0.00,,,0.00,weatherlink.com 1.10,2013-08-22 22:30:00,
2013-08-22 18:45:00,83.9,67.0,29.88,NW,304,2.0,8.0,58,0.00,,,0.00,weatherlink.com 1.10,2013-08-22 22:45:00,
2013-08-22 19:00:00,83.0,67.0,29.88,NW,312,3.0,7.0,58,0.00,,,0.00,weatherlink.com 1.10,2013-08-22 23:00:00,
2013-08-22 19:15:00,82.0,67.0,29.88,West,271,1.0,4.0,61,0.00,,,0.00,weatherlink.com 1.10,2013-08-22 23:15:00,
2013-08-22 19:30:00,81.2,67.0,29.88,WNW,289,1.0,5.0,62,0.00,,,0.00,weatherlink.com 1.10,2013-08-22 23:30:00,
2013-08-22 19:45:00,80.3,67.0,29.89,West,271,0.0,3.0,64,0.00,,,0.00,weatherlink.com 1.10,2013-08-22 23:45:00,
2013-08-22 20:00:00,79.0,67.0,29.90,NW,310,1.0,3.0,67,0.00,,,0.00,weatherlink.com 1.10,2013-08-23 00:00:00,
2013-08-22 20:15:00,78.1,67.0,29.91,NW,312,0.0,3.0,69,0.00,,,0.00,weatherlink.com 1.10,2013-08-23 00:15:00,
2013-08-22 20:30:00,77.2,67.0,29.91,NW,308,0.0,2.0,70,0.00,,,0.00,weatherlink.com 1.10,2013-08-23 00:30:00,
2013-08-22 20:45:00,76.0,67.0,29.91,NW,308,1.0,1.0,74,0.00,,,0.00,weatherlink.com 1.10,2013-08-23 00:45:00,
2013-08-22 21:00:00,74.9,67.0,29.91,NW,315,2.0,3.0,77,0.00,,,0.00,weatherlink.com 1.10,2013-08-23 01:00:00,
2013-08-22 21:15:00,74.1,67.0,29.92,WNW,283,0.0,3.0,78,0.00,,,0.00,weatherlink.com 1.10,2013-08-23 01:15:00,
2013-08-22 21:30:00,74.1,67.0,29.92,NW,315,0.0,3.0,78,0.00,,,0.00,weatherlink.com 1.10,2013-08-23 01:30:00,
2013-08-22 21:45:00,73.8,67.0,29.92,NW,315,0.0,1.0,78,0.00,,,0.00,weatherlink.com 1.10,2013-08-23 01:45:00,
2013-08-22 22:00:00,73.1,67.0,29.93,NW,315,0.0,0.0,81,0.00,,,0.00,weatherlink.com 1.10,2013-08-23 02:00:00,
2013-08-22 22:15:00,72.2,66.0,29.93,NW,315,0.0,0.0,82,0.00,,,0.00,weatherlink.com 1.10,2013-08-23 02:15:00,
2013-08-22 22:30:00,71.4,66.0,29.92,NW,314,0.0,0.0,84,0.00,,,0.00,weatherlink.com 1.10,2013-08-23 02:30:00,
2013-08-22 22:45:00,70.5,66.0,29.92,NW,315,0.0,0.0,86,0.00,,,0.00,weatherlink.com 1.10,2013-08-23 02:45:00,
2013-08-22 23:00:00,70.0,66.0,29.92,NW,314,0.0,0.0,87,0.00,,,0.00,weatherlink.com 1.10,2013-08-23 03:00:00,
2013-08-22 23:15:00,69.8,66.0,29.92,NW,314,1.0,2.0,87,0.00,,,0.00,weatherlink.com 1.10,2013-08-23 03:15:00,
2013-08-22 23:30:00,70.0,66.0,29.93,NW,315,0.0,0.0,86,0.00,,,0.00,weatherlink.com 1.10,2013-08-23 03:30:00,
2013-08-22 23:45:00,69.5,66.0,29.93,NW,315,0.0,0.0,87,0.00,,,0.00,weatherlink.com 1.10,2013-08-23 03:45:00,